Weather History for Yakima, WA

Change the Weather History Date:

Wednesday, February 6, 2013

  Actual Average Record
Temperature  
Mean Temperature 39 °F 34 °F  
Max Temperature 51 °F 44 °F 60 °F (1967)
Min Temperature 27 °F 25 °F 0 °F (1985)
Degree Days  
Heating Degree Days 26 30  
Month to date heating degree days 151 185  
Since 1 July heating degree days 3420 3903  
Cooling Degree Days 0 0  
Month to date cooling degree days 0 0  
Year to date cooling degree days 0 0  
Moisture  
Dew Point 30 °F    
Average Humidity 68    
Maximum Humidity 85    
Minimum Humidity 50    
Precipitation  
Precipitation T in 0.03 in 0.58 in (1996)
Month to date precipitation T 0.17  
Year to date precipitation 0.10 1.31  
Snow  
Snow 0.00 in 0.10 in 3.50 in (1975)
Month to date snowfall 0.0 0.7  
Year to date snowfall 1.1 6.0  
Since 1 July snowfall 15.3 19.0  
Snow Depth 0.00 in    
Sea Level Pressure  
Sea Level Pressure 30.00 in    
Wind  
Wind Speed 4 mph (SW)    
Max Wind Speed 22 mph    
Max Gust Speed 26 mph    
Visibility 10 miles    
Events      
T = Trace of Precipitation, MM = Missing Value Source: NWS Daily Summary

Daily Weather History Graph

Daily Weather History Graph

Search for Another Location

Airport:

Trip Planner

Search our weather history database for the weather conditions in past years. The results will help you decide how hot, cold, wet, or windy it might be!

Date:

Astronomy

Feb. 06, 2013 Rise Set
Actual Time 7:18 AM PST 5:14 PM PST
Civil Twilight 6:47 AM PST 5:46 PM PST
Nautical Twilight 6:11 AM PST 6:21 PM PST
Astronomical Twilight 5:36 AM PST 6:57 PM PST
Moon 4:14 AM PST (2/6) 1:31 PM PST (2/6)
Length of Visible Light 10h 59m
Length of Day
9h 55m
Waning Crescent, 16% of the Moon is Illuminated
Feb 6
Waning Crescent
Feb 9
New
Feb 17
First Quarter
Feb 25
Full
Mar 4
Last Quarter

Hourly Weather History & Observations

Time (PST) Temp. Windchill Dew Point Humidity Pressure Visibility Wind Dir Wind Speed Gust Speed Precip Events Conditions
12:53 AM 35.1 °F - 28.0 °F 76% 29.96 in 10.0 mi Calm Calm - N/A   Clear
1:53 AM 33.1 °F - 28.0 °F 82% 29.97 in 10.0 mi Calm Calm - N/A   Clear
2:53 AM 33.1 °F - 28.0 °F 82% 29.99 in 10.0 mi Calm Calm - N/A   Clear
3:53 AM 30.9 °F - 27.0 °F 85% 30.00 in 10.0 mi Calm Calm - N/A   Clear
4:53 AM 30.0 °F - 26.1 °F 85% 30.02 in 10.0 mi Calm Calm - N/A   Clear
5:53 AM 28.0 °F 21.7 °F 23.0 °F 81% 30.04 in 10.0 mi WNW 5.8 mph - N/A   Partly Cloudy
6:53 AM 28.9 °F 23.9 °F 25.0 °F 85% 30.04 in 10.0 mi NW 4.6 mph - N/A   Clear
7:53 AM 33.1 °F 30.0 °F 28.0 °F 82% 30.05 in 10.0 mi NNW 3.5 mph - N/A   Scattered Clouds
8:53 AM 36.0 °F - 30.0 °F 79% 30.07 in 10.0 mi Calm Calm - N/A   Clear
9:53 AM 39.2 °F - 33.8 °F 81% 30.05 in 10.0 mi Calm Calm - N/A   Clear
10:53 AM 46.9 °F - 34.0 °F 61% 30.07 in 10.0 mi ESE 3.5 mph - N/A   Scattered Clouds
11:53 AM 48.9 °F - 32.0 °F 52% 30.06 in 10.0 mi ESE 4.6 mph - N/A   Mostly Cloudy
12:53 PM 51.1 °F - 34.0 °F 52% 30.04 in 10.0 mi West 6.9 mph - N/A   Mostly Cloudy
1:53 PM 50.0 °F - 33.1 °F 52% 30.02 in 10.0 mi South 16.1 mph 23.0 mph N/A   Mostly Cloudy
2:53 PM 50.0 °F - 33.1 °F 52% 30.01 in 10.0 mi South 17.3 mph 23.0 mph N/A   Mostly Cloudy
3:53 PM 50.0 °F - 32.0 °F 50% 29.99 in 10.0 mi SSW 11.5 mph 26.5 mph N/A   Overcast
4:53 PM 46.9 °F - 33.1 °F 59% 29.99 in 10.0 mi SSW 3.5 mph - N/A   Overcast
5:53 PM 48.0 °F - 32.0 °F 54% 29.99 in 10.0 mi Calm Calm - 0.00 in   Overcast
6:53 PM 44.1 °F 41.5 °F 32.0 °F 63% 29.97 in 10.0 mi East 4.6 mph - N/A   Mostly Cloudy
7:53 PM 43.0 °F - 32.0 °F 65% 29.97 in 10.0 mi Calm Calm - N/A   Mostly Cloudy
8:53 PM 37.9 °F - 30.0 °F 73% 29.96 in 10.0 mi Calm Calm - N/A   Overcast
9:53 PM 37.0 °F 34.5 °F 30.0 °F 76% 29.94 in 10.0 mi WNW 3.5 mph - N/A   Mostly Cloudy
10:53 PM 37.9 °F - 30.9 °F 76% 29.92 in 10.0 mi Calm Calm - N/A   Overcast
11:53 PM 37.9 °F 33.5 °F 32.0 °F 79% 29.91 in 10.0 mi West 5.8 mph - N/A   Overcast